This is the latest recevied weather packets stored in our database for station/object IR3AS. If no packets are shown the sender has not sent any weather packets the latest 10 day(s).
| Time | Temp. | Humidity | Pressure | Rain* | Wind** | Luminosity | Snow |
|---|---|---|---|---|---|---|---|
| 1776937286 | 3.89° C | 44% | 859.4 hPa | 0 mm | - | - | - |
| 1776936986 | 3.89° C | 44% | 859.4 hPa | 0 mm | - | - | - |
| 1776936686 | 3.89° C | 42% | 859.4 hPa | 0 mm | - | - | - |
| 1776936386 | 3.89° C | 43% | 859.6 hPa | 0 mm | - | - | - |
| 1776936086 | 4.44° C | 43% | 859.5 hPa | 0 mm | - | - | - |
| 1776935786 | 4.44° C | 42% | 859.6 hPa | 0 mm | - | - | - |
| 1776935486 | 4.44° C | 43% | 859.4 hPa | 0 mm | - | - | - |
| 1776935186 | 4.44° C | 43% | 859.4 hPa | 0 mm | - | - | - |
| 1776934886 | 4.44° C | 42% | 859.5 hPa | 0 mm | - | - | - |
| 1776934586 | 4.44° C | 41% | 859.4 hPa | 0 mm | - | - | - |
| 1776934286 | 3.89° C | 41% | 859.6 hPa | 0 mm | - | - | - |
| 1776933986 | 3.33° C | 41% | 859.5 hPa | 0 mm | - | - | - |
| 1776933686 | 2.78° C | 40% | 859.8 hPa | 0 mm | - | - | - |
| 1776933386 | 2.78° C | 39% | 859.8 hPa | 0 mm | - | - | - |
| 1776933086 | 2.78° C | 39% | 859.8 hPa | 0 mm | - | - | - |
| 1776932786 | 2.22° C | 39% | 859.8 hPa | 0 mm | - | - | - |
| 1776932486 | 2.22° C | 38% | 859.9 hPa | 0 mm | - | - | - |
| 1776932186 | 2.78° C | 37% | 859.5 hPa | 0 mm | - | - | - |
| 1776931886 | 2.78° C | 39% | 859.7 hPa | 0 mm | - | - | - |
| 1776931586 | 2.22° C | 38% | 859.5 hPa | 0 mm | - | - | - |
| 1776931286 | 2.22° C | 36% | 859.4 hPa | 0 mm | - | - | - |
| 1776930986 | 2.22° C | 34% | 859.1 hPa | 0 mm | - | - | - |
| 1776930686 | 2.22° C | 32% | 859.3 hPa | 0 mm | - | - | - |
| 1776930386 | 2.22° C | 32% | 859.3 hPa | 0 mm | - | - | - |
| 1776930086 | 2.22° C | 32% | 859.3 hPa | 0 mm | - | - | - |
* Rain latest hour (hover to see other rain measurements)
** Current wind speed in m/s (hover to see current wind gust speed)